Location: Barcelona
(41.3829°N, 2.1774°E)
Time: 18:16:14
(UTC+00:00)

ISS - Pass Details

Date: 16 October 2025
Orbit: 414 x 421 km, 51.6° (Epoch: 07 November)

Event Time Altitude Azimuth Distance (km) Brightness Sun altitude
Exits shadow 05:02:28 - 215° (SW) 1,719 -1.0 -12.4°
Reaches altitude 10° 05:03:03 10° 213° (SSW) 1,491 -1.3 -12.2°
Maximum altitude 05:06:16 46° 139° (SE) 575 -2.7 -11.6°
Drops below altitude 10° 05:09:31 10° 65° (ENE) 1,505 0.1 -11.0°
Sets 05:11:41 0° 59° (ENE) 2,375 1.1 -10.6°
